Theta_e
320 323 324 325 326 326 324 325 325 326 327 327 327 325 327 327 327 326 326 326 325 325 324 325 327 326 327 326 327 327 327 327 329 328 326 327 326 326 329 329 328 329 328 329 328 323 321 317 321 329 332 331 331 333 333 333 332 332 334 333 334 335 335
323 322 323 323 323 326 325 325 326 325 327 327 325 325 325 324 326 326 326 325 323 323 322 322 323 324 325 325 325 324 324 324 326 326 325 324 325 323 324 326 325 326 326 327 327 328 319 317 318 320 323 331 330 332 335 333 334 335 334 333 333 337 334
321 320 322 321 323 324 324 325 325 324 323 323 324 323 322 321 321 322 320 320 321 319 318 318 319 321 323 322 324 326 326 324 324 324 323 322 322 323 322 323 320 320 320 322 323 325 321 321 316 317 322 324 324 330 334 334 337 338 336 335 333 332 334
321 321 321 321 321 324 323 323 323 323 323 322 322 322 322 321 322 321 321 320 320 321 319 318 320 318 320 321 322 323 323 323 323 323 322 321 322 321 321 319 318 318 318 317 318 319 318 316 315 316 318 318 319 323 331 334 334 333 335 337 332 333 335
322 321 322 321 321 323 323 322 323 322 322 321 321 320 323 322 321 320 321 321 320 320 319 320 320 319 320 321 321 321 321 321 322 321 321 320 321 320 319 319 318 317 319 317 317 318 316 315 315 313 311 312 313 315 320 329 328 327 326 325 327 329 332
323 322 323 322 322 321 322 322 322 321 321 320 320 320 322 323 322 321 321 319 320 320 320 319 320 320 320 320 320 320 320 320 319 320 317 318 318 317 316 317 316 317 318 318 317 317 316 316 314 311 312 314 312 313 314 314 313 316 321 321 321 322 327
323 323 323 322 323 322 322 322 322 321 321 321 320 321 322 322 322 323 322 321 320 320 320 321 321 320 320 317 318 319 319 320 321 320 319 319 319 318 318 316 315 314 315 317 316 316 316 314 312 312 312 310 311 309 311 311 313 311 316 321 322 321 321
323 322 321 322 323 322 323 323 322 322 322 323 320 322 322 323 323 323 322 321 320 320 320 320 320 320 320 318 319 320 320 319 319 318 317 319 318 317 317 316 317 316 314 315 314 315 314 314 314 314 311 307 308 310 309 311 312 313 313 316 319 321 323
324 323 321 322 323 323 324 323 322 323 324 323 324 323 322 324 323 322 321 321 321 319 320 319 319 318 319 318 317 318 316 317 319 319 319 318 318 318 316 317 318 314 316 314 314 315 314 315 313 313 313 312 308 306 309 308 309 310 315 314 317 320 321
327 325 322 323 325 325 325 325 322 323 325 325 324 324 322 324 324 323 321 321 321 321 321 319 319 319 319 319 319 318 318 319 318 317 318 317 317 316 316 316 315 315 313 315 317 315 315 316 315 314 313 311 311 307 305 306 308 309 312 315 313 316 318
328 327 326 324 325 325 324 324 324 323 323 325 325 325 323 323 324 322 322 321 321 321 321 320 318 318 319 318 318 318 317 318 317 317 317 316 316 316 315 314 315 314 313 315 314 316 316 315 313 314 313 313 313 309 308 306 307 311 310 313 314 313 318
329 328 327 327 327 326 325 323 323 323 324 325 325 325 323 323 323 322 323 322 321 320 320 319 319 318 318 317 317 316 317 318 316 316 316 316 316 316 314 315 314 313 313 314 316 316 316 315 315 313 313 314 314 314 311 308 305 310 315 313 315 317 316
327 326 327 327 326 326 325 324 322 323 324 324 325 326 322 322 322 322 321 321 321 320 319 319 319 318 318 318 316 316 316 316 315 315 315 315 314 315 314 314 313 312 313 311 313 314 313 314 316 312 312 311 312 314 313 311 308 307 312 312 313 314 315
327 326 326 327 328 327 327 324 321 324 324 325 325 325 322 322 321 321 321 320 320 320 319 319 318 319 317 318 317 317 315 314 313 314 314 312 312 313 311 311 311 314 314 313 313 312 311 312 313 313 314 312 311 311 311 310 308 308 312 315 314 313 315
328 328 327 327 328 327 326 325 323 323 324 325 324 324 323 322 322 322 320 320 320 319 319 319 318 319 317 317 317 317 315 313 313 313 313 312 313 311 312 311 310 311 312 310 311 310 310 310 309 308 309 311 310 311 312 309 308 307 307 311 311 314 313
325 326 327 325 326 326 325 327 327 325 322 324 324 324 324 323 322 322 321 321 320 319 319 318 319 318 317 317 315 315 315 314 313 313 312 311 310 312 311 312 311 312 313 311 312 312 312 310 311 309 310 310 310 310 310 310 308 306 306 307 310 309 310
326 325 325 324 324 327 327 326 325 325 324 323 323 324 322 322 322 322 321 321 320 319 319 319 318 317 316 316 316 314 314 314 314 314 312 311 310 310 311 310 311 311 311 310 310 310 309 310 310 310 309 309 309 309 312 312 312 310 309 307 310 308 310
325 327 326 326 327 327 325 324 325 323 323 323 323 323 323 322 322 321 322 321 320 320 320 319 318 317 317 317 316 315 314 313 313 313 312 311 311 309 310 310 309 309 309 309 310 310 310 310 307 307 307 307 307 308 309 309 309 309 308 307 308 309 310
324 325 325 325 326 327 327 327 325 326 323 322 322 322 321 321 321 321 321 321 321 321 320 320 319 317 316 317 316 316 314 313 313 312 312 311 310 311 309 309 309 309 308 308 308 309 309 309 308 308 308 307 307 308 308 308 308 307 306 306 307 307 310
324 324 325 326 327 327 326 327 325 325 324 323 323 320 321 322 322 321 321 321 321 321 321 320 319 318 317 316 316 314 314 313 312 312 312 310 309 309 308 308 308 308 307 307 307 307 308 309 308 308 308 309 308 308 308 307 307 307 306 306 306 307 307
315 317 321 324 326 326 326 326 325 324 323 324 324 322 322 322 323 322 321 322 321 321 321 320 319 318 317 317 315 314 313 313 312 312 311 309 308 308 307 306 306 306 306 307 307 307 305 304 305 304 304 305 305 305 305 305 305 305 305 305 304 304 305
315 314 315 317 318 321 324 326 324 322 321 322 323 322 323 323 323 323 323 322 321 321 320 320 319 318 317 316 315 314 313 312 312 311 309 308 308 307 306 306 306 306 305 299 296 298 299 299 299 299 301 302 303 303 304 304 304 303 304 304 303 305 304
314 315 316 317 318 320 319 320 323 324 324 323 323 323 323 323 324 323 322 322 321 321 320 321 315 307 309 315 315 314 314 312 310 309 308 307 306 306 306 306 306 305 300 299 298 295 294 294 296 299 300 301 301 301 301 302 302 302 302 301 302 302 302
312 313 314 316 318 319 319 320 321 321 323 324 324 324 323 322 322 324 321 320 319 321 323 318 300 300 301 303 313 314 311 309 308 308 307 306 306 306 306 305 306 305 302 301 301 295 294 293 293 294 294 295 297 298 297 297 298 300 299 299 300 301 301
309 310 311 312 314 316 318 319 319 320 321 322 323 324 323 322 321 321 321 319 319 319 320 299 295 296 296 298 304 311 310 308 307 306 306 305 305 305 304 305 305 305 305 304 305 303 298 294 293 293 292 292 293 292 294 297 297 297 298 298 298 300 301
308 308 309 310 312 315 316 317 319 319 319 320 322 322 322 321 321 321 320 317 317 318 314 294 294 294 294 294 296 303 308 308 306 305 306 305 304 304 304 303 304 304 304 303 301 301 303 304 295 292 293 293 293 292 291 290 292 298 299 297 297 297 298
308 308 309 310 310 311 313 314 317 319 319 319 320 321 322 321 321 320 319 318 317 317 305 295 293 293 293 292 292 296 307 306 305 305 304 304 304 303 303 303 302 302 303 303 304 303 303 303 302 302 301 301 301 299 293 291 291 291 294 298 298 297 299
308 309 309 309 310 309 310 312 315 317 317 317 317 318 320 320 320 320 319 318 317 310 303 292 292 292 292 292 290 293 305 305 303 303 303 303 303 303 303 303 302 301 302 302 303 301 301 300 300 299 299 299 300 300 302 302 301 299 299 299 299 300 301
309 308 308 308 309 309 310 312 313 316 316 316 317 317 318 319 319 319 318 318 315 303 300 291 291 291 291 291 290 301 303 303 302 302 303 303 303 303 303 302 302 302 302 302 296 291 296 299 298 297 296 297 298 300 301 299 298 299 302 302 302 301 302
308 309 308 308 307 308 309 310 312 315 315 315 315 316 316 317 318 318 317 315 314 301 297 292 290 290 290 290 293 301 303 301 302 302 303 303 303 303 304 303 303 302 302 302 294 290 290 293 297 296 296 297 298 298 299 301 297 294 293 293 293 293 292
308 308 308 307 307 308 310 311 311 314 314 313 314 314 315 316 317 317 316 315 306 301 298 293 290 290 290 290 295 301 301 302 301 302 302 303 304 303 304 304 303 301 300 301 290 290 288 294 297 296 296 296 296 296 297 299 300 300 295 293 292 292 292
308 308 308 308 308 308 309 310 311 313 314 314 314 314 314 314 315 314 313 310 300 299 296 293 290 290 290 290 295 302 301 301 301 301 302 302 302 302 302 303 299 299 300 298 289 289 288 293 296 296 296 295 294 294 295 297 297 297 298 299 300 300 298
309 309 309 310 311 310 310 310 312 313 313 313 312 312 312 312 311 307 305 301 300 298 295 294 293 289 290 290 290 299 301 297 298 299 300 300 300 301 301 301 301 292 291 289 288 288 288 289 293 295 296 294 293 292 296 296 296 295 294 294 294 295 295
308 309 310 311 311 311 312 312 312 312 312 312 312 311 311 310 306 304 303 301 299 298 297 295 293 289 290 290 288 292 298 298 298 298 298 298 298 297 297 297 298 289 288 288 289 287 289 288 289 292 293 293 294 294 291 292 292 291 293 293 293 293 293
309 310 311 311 311 311 312 313 313 312 311 311 311 310 307 304 302 300 300 301 301 300 299 297 294 290 290 290 289 289 295 297 298 297 294 295 295 296 297 297 297 290 287 287 288 288 288 288 288 291 291 289 288 288 290 291 291 291 291 291 290 291 291
309 310 310 311 310 310 311 311 312 312 311 310 309 307 304 302 300 298 298 299 299 299 299 297 292 293 289 290 289 289 289 293 290 296 294 294 295 295 297 298 298 290 289 288 288 288 288 288 289 291 289 288 288 287 288 291 290 290 290 290 290 290 290
308 309 309 309 309 309 310 310 310 310 310 307 306 304 302 301 300 298 297 297 299 298 298 298 293 291 291 289 289 289 288 287 289 294 296 295 295 296 298 299 297 289 289 289 288 288 288 288 290 288 288 288 287 288 290 290 290 289 289 289 289 289 289
Wind_Speed
6 6 6 5 4 4 4 4 4 3 3 3 3 3 3 3 3 3 2 2 2 3 2 3 3 4 5 6 7 6 5 4 3 4 4 2 2 0 2 3 3 2 5 4 3 4 2 4 3 2 2 3 3 2 4 5 5 4 8 12 10 7 6
7 7 6 6 5 5 5 3 3 4 3 3 4 3 4 4 3 3 4 4 4 3 3 4 4 5 6 5 6 5 5 4 5 4 0 4 3 3 1 2 3 5 4 5 2 2 3 4 2 1 4 1 3 5 4 4 5 3 3 5 11 10 3
7 6 6 6 5 5 5 4 4 3 4 3 3 4 4 4 4 3 4 4 4 6 6 6 5 5 5 5 5 5 4 4 4 5 5 4 3 3 3 2 3 2 3 1 3 5 2 1 4 3 4 4 3 3 3 5 5 5 5 6 10 10 5
8 7 7 6 6 5 5 5 4 4 3 4 3 3 3 4 4 4 3 4 4 3 4 4 4 5 4 5 4 4 5 6 5 4 5 5 3 3 4 3 3 3 4 4 5 5 3 4 4 4 5 5 6 5 6 6 6 7 7 7 8 7 5
8 7 7 7 7 7 6 5 4 5 5 4 3 3 3 3 3 3 3 3 4 3 3 3 3 4 4 4 4 4 4 4 4 4 4 4 4 2 3 3 3 3 2 4 5 4 4 5 5 6 6 6 7 6 1 8 8 7 8 9 10 9 10
9 8 8 8 8 7 7 6 6 5 5 5 4 4 4 4 3 3 2 2 3 3 3 4 4 5 4 4 4 5 5 6 5 5 5 5 5 6 4 2 4 3 3 3 2 3 4 3 4 5 5 6 6 6 8 7 6 8 8 8 8 8 7
9 9 8 8 8 7 6 7 6 5 5 5 5 5 5 5 4 3 2 3 3 4 3 3 3 3 2 4 5 5 5 4 4 4 4 4 4 4 4 3 4 3 4 3 3 2 2 3 4 4 5 6 6 7 6 7 7 7 6 6 5 6 6
9 8 8 7 8 7 7 7 6 5 6 6 6 5 6 5 5 4 4 4 4 4 4 3 3 3 2 3 4 4 4 4 4 4 4 4 4 4 4 4 1 2 3 3 2 3 3 4 3 3 4 5 5 5 6 5 6 5 6 6 4 3 4
8 8 8 7 8 7 7 7 6 6 5 6 7 7 7 5 5 5 5 4 4 4 3 3 3 3 3 3 3 3 3 3 3 3 3 3 4 4 5 4 3 4 3 4 5 4 4 4 4 3 3 4 5 6 5 5 4 5 5 5 5 3 5
9 9 8 8 8 8 8 7 7 7 6 7 7 8 8 7 6 6 6 6 5 4 4 4 3 3 3 2 3 3 3 2 2 3 3 3 2 3 3 3 4 2 4 3 2 3 4 3 3 4 4 4 4 5 5 5 4 5 6 6 5 5 5
9 8 8 8 8 8 8 8 7 8 8 7 8 8 8 8 8 8 6 6 6 5 5 5 5 4 4 3 4 3 3 3 3 2 1 2 2 2 2 4 3 2 4 4 4 3 3 3 3 4 4 4 4 5 5 6 7 6 7 6 6 6 4
9 9 8 7 7 8 9 9 9 9 9 9 9 9 9 9 9 8 8 8 7 7 6 5 5 5 5 4 4 3 3 4 3 3 2 2 1 1 1 1 2 1 3 2 3 2 2 2 3 4 4 3 4 4 5 5 7 6 5 5 6 7 8
10 10 9 7 8 8 8 9 9 10 10 10 10 11 10 11 10 10 9 9 8 8 8 7 6 6 5 5 5 4 4 3 4 4 4 3 2 1 1 2 0 3 2 4 3 2 3 3 2 4 4 4 4 4 4 5 7 8 7 8 8 8 9
9 9 9 9 7 7 7 9 10 9 9 10 11 12 11 12 12 11 11 10 10 9 9 8 7 7 6 6 5 5 5 4 4 4 3 2 2 1 1 1 1 1 1 3 4 4 4 3 4 4 4 4 4 4 5 5 7 8 7 6 6 7 7
8 8 9 9 7 7 5 5 9 10 9 10 11 12 13 11 12 12 11 11 11 11 10 10 9 8 8 7 6 5 5 5 5 4 3 4 3 1 1 2 2 0 2 4 4 6 5 5 5 5 5 4 4 4 4 6 6 7 9 6 7 7 8
8 9 9 9 9 7 5 4 10 9 11 9 10 11 12 12 13 13 12 12 12 11 11 11 9 9 8 8 8 7 6 6 5 4 5 4 4 4 2 2 3 2 1 3 4 5 4 5 5 6 6 5 6 6 6 6 6 8 9 8 7 8 7
6 7 7 8 10 10 7 7 8 7 9 10 10 10 12 13 12 13 13 13 13 12 12 11 10 10 10 9 9 8 8 7 6 5 5 4 3 3 3 2 3 2 3 4 4 4 5 4 4 5 6 6 6 6 5 5 7 7 7 8 7 7 7
5 2 4 4 5 8 9 10 8 8 8 10 11 12 12 12 12 13 12 13 13 13 12 12 12 11 10 9 9 8 8 7 7 6 4 3 1 3 2 3 3 2 2 4 4 4 4 5 6 6 7 7 7 6 5 6 7 7 8 9 9 8 8
4 5 5 7 6 7 9 10 10 9 10 10 9 11 13 12 12 13 13 13 13 12 12 11 12 11 11 10 9 8 8 7 7 6 5 4 4 4 3 3 2 3 2 3 4 3 4 6 6 6 7 7 8 8 8 8 8 8 9 9 9 9 8
3 4 4 4 6 6 9 12 12 10 8 10 7 11 14 15 13 13 13 13 13 13 12 12 11 11 11 11 11 10 9 8 7 6 5 5 4 4 3 3 2 2 3 3 3 3 4 5 5 6 7 7 7 8 8 8 8 9 9 10 9 9 9
5 5 3 4 5 9 9 4 3 3 8 12 9 13 13 15 13 13 13 13 13 12 12 11 13 12 11 11 11 10 9 8 8 7 6 5 5 4 4 3 4 3 3 1 3 4 4 5 5 6 6 7 8 9 9 9 9 9 9 9 9 9 8
3 5 6 7 7 9 8 8 6 4 8 11 11 14 15 14 12 14 13 13 13 12 11 11 12 12 11 12 11 10 10 9 8 7 7 6 6 5 4 4 4 4 5 5 4 3 4 4 5 6 7 7 8 8 9 9 9 9 9 9 10 9 9
5 6 6 7 8 8 7 8 7 10 14 14 13 11 12 13 12 10 13 13 12 11 10 9 9 12 12 10 11 9 8 8 8 7 7 7 6 6 5 4 4 8 5 2 5 7 7 6 6 6 7 7 8 8 9 9 9 9 9 10 10 10 10
4 6 6 6 7 7 8 7 7 8 8 9 9 10 11 11 12 7 8 15 15 6 3 2 11 12 11 11 10 9 8 8 8 7 7 6 6 6 5 5 4 9 8 8 9 11 10 10 10 10 11 11 10 8 9 10 10 10 10 10 10 10 11
6 6 6 6 6 7 6 6 7 8 7 8 9 9 9 10 10 10 5 2 2 2 3 9 14 13 11 9 7 8 8 7 7 6 6 6 5 5 5 4 3 3 5 6 4 6 12 14 14 13 13 12 13 14 12 10 10 10 10 11 11 11 11
6 6 6 7 6 6 7 6 7 7 8 7 7 7 8 8 9 9 6 9 8 7 5 9 12 13 11 10 7 6 7 7 7 7 6 6 4 3 3 4 4 4 3 8 5 9 7 7 14 15 13 15 15 15 15 17 16 13 11 12 12 13 11
7 7 7 7 7 7 7 8 7 7 7 7 7 7 7 8 8 8 8 8 9 7 9 8 12 12 11 10 5 0 5 7 5 5 5 5 4 5 5 5 5 4 4 5 5 5 5 5 5 4 7 8 10 14 18 19 19 19 17 13 13 13 11
6 7 7 8 8 8 8 8 8 7 7 7 8 7 8 9 8 8 7 8 6 8 8 12 12 12 10 9 6 2 2 5 4 4 4 5 5 5 5 5 5 6 6 6 4 2 4 6 6 6 8 10 11 12 10 10 12 12 12 11 14 14 13
6 7 7 7 8 8 8 8 8 7 7 7 7 7 6 7 9 8 9 8 7 9 8 14 13 12 11 9 7 3 4 5 4 3 5 5 5 5 6 5 6 6 6 7 7 7 3 3 7 8 10 11 11 11 11 11 12 12 12 12 12 14 12
7 7 8 8 9 9 9 9 8 7 8 7 7 7 7 7 8 9 9 8 7 9 9 10 13 13 12 10 7 5 5 5 4 6 5 6 6 6 6 6 6 6 6 6 8 10 9 4 6 9 11 11 11 11 11 10 11 14 16 17 17 19 21
7 8 8 9 9 9 9 8 8 7 8 8 8 8 7 7 7 7 8 8 10 11 10 9 12 12 12 12 6 4 5 5 5 4 4 5 5 5 6 5 4 8 9 8 10 10 10 5 7 9 11 12 12 12 11 10 10 9 12 15 17 19 20
8 8 9 9 9 10 9 9 9 7 7 8 8 7 7 6 6 3 3 6 12 12 9 9 10 11 11 10 5 3 4 2 2 3 3 4 4 5 6 7 12 9 10 6 11 8 8 5 8 9 10 11 12 13 11 11 12 13 13 13 10 10 11
8 8 9 8 8 9 8 9 9 8 8 7 7 7 6 6 6 6 7 9 8 9 10 7 9 9 8 7 4 5 1 1 3 3 4 5 5 5 5 7 7 9 3 11 9 9 6 5 6 9 9 10 12 14 11 12 12 12 13 12 12 13 15
9 9 8 8 8 8 8 8 8 8 8 8 8 5 2 4 7 7 7 8 9 8 8 9 8 8 7 6 4 2 3 3 3 4 4 5 6 6 6 7 4 12 12 10 10 4 3 4 5 8 9 11 11 11 13 12 14 16 16 15 14 14 13
9 8 8 8 8 8 8 9 8 8 7 6 6 4 6 6 7 7 7 7 8 8 8 10 8 7 8 6 6 2 2 1 3 4 5 6 7 7 7 7 1 8 9 6 5 6 8 8 9 8 10 13 13 13 13 13 13 13 13 13 12 12 12
10 8 8 8 9 9 8 9 9 7 5 6 4 6 7 7 8 8 7 6 6 7 7 8 12 8 8 8 7 6 4 3 4 4 6 7 7 7 7 8 2 7 8 5 6 7 8 10 9 9 9 10 11 12 11 12 12 12 12 12 12 13 12
10 9 10 9 8 10 9 9 9 7 5 5 6 8 7 8 8 8 8 7 6 6 6 6 9 10 8 9 8 7 6 5 5 4 5 6 7 8 8 6 8 16 13 14 11 11 11 12 11 13 15 14 15 13 10 12 12 12 12 12 13 13 12
Wind_Direction
142 124 131 118 105 107 115 123 108 113 106 88 85 85 108 91 49 63 41 37 19 58 80 64 39 33 15 36 26 21 13 40 100 117 122 128 136 135 248 176 215 240 248 235 258 263 278 301 304 298 207 245 290 240 243 256 248 286 321 322 299 228 196
132 141 142 135 133 125 129 131 106 94 84 71 78 81 74 82 85 64 44 39 28 35 68 76 58 43 39 38 31 22 27 33 23 17 65 141 145 123 205 219 228 231 194 214 256 235 217 273 247 243 300 336 276 262 259 280 305 274 265 291 293 315 345
150 150 150 138 137 146 132 130 130 124 107 117 103 77 77 78 75 84 78 62 46 38 41 56 64 66 51 46 33 35 36 41 31 29 32 31 16 29 343 343 300 254 288 261 185 238 281 178 272 250 224 249 280 250 223 246 246 242 231 204 248 271 279
156 156 146 154 148 158 146 149 157 135 133 110 113 105 75 76 70 70 69 73 69 50 62 74 57 70 75 62 57 51 36 28 43 46 37 25 15 35 347 360 360 8 357 340 4 350 358 320 318 296 289 254 230 225 209 211 223 235 217 221 242 234 257
160 165 157 164 161 164 158 159 153 153 142 132 131 127 120 91 85 79 82 89 75 73 70 68 80 83 70 70 64 57 59 50 48 43 40 36 9 46 23 9 10 0 2 349 14 351 337 334 325 317 302 302 298 295 151 180 215 241 247 242 237 221 216
172 174 167 169 171 173 167 169 162 166 152 154 154 148 140 152 122 116 117 94 90 66 58 68 65 51 63 76 80 78 58 55 51 39 47 33 23 5 17 24 347 11 22 22 346 352 344 325 312 301 299 318 313 314 303 299 276 250 237 241 234 255 245
182 179 181 174 176 181 172 169 174 167 163 165 161 167 156 172 165 143 123 105 99 105 97 81 68 76 83 103 87 68 76 76 70 78 73 63 53 33 3 11 15 12 19 1 356 317 322 330 324 328 324 311 308 292 292 281 271 276 249 217 241 242 254
185 186 189 177 177 186 178 171 184 171 169 172 169 166 164 183 162 166 147 140 140 136 128 124 119 113 88 75 81 72 69 61 58 54 64 49 53 44 28 10 327 64 7 23 347 349 340 337 327 330 323 317 306 288 285 292 308 295 304 316 318 299 260
191 190 197 186 178 187 181 174 186 180 176 168 167 164 171 178 168 166 169 160 157 155 149 146 154 128 115 105 106 113 99 93 99 84 86 80 55 33 31 0 336 39 6 21 340 24 358 355 331 311 292 292 306 307 321 310 307 299 335 309 320 299 327
200 201 201 194 182 181 183 182 184 185 178 173 167 167 177 175 173 176 180 170 172 170 169 167 158 135 146 143 118 134 123 113 91 75 51 57 60 23 32 16 354 10 40 354 356 0 352 342 325 326 311 308 317 308 305 311 308 317 309 354 318 345 2
206 211 211 202 191 184 187 186 186 184 186 179 170 170 180 178 177 181 183 179 182 182 179 178 172 162 174 156 145 155 135 132 136 122 101 73 50 47 37 17 356 13 27 344 0 344 330 335 321 316 317 308 302 295 307 303 306 314 304 306 290 294 328
206 211 216 217 201 201 196 194 191 187 185 185 177 174 182 183 184 183 188 185 185 186 185 181 180 174 192 159 174 159 150 182 157 136 117 81 74 92 35 7 337 5 5 328 311 297 314 295 310 307 294 292 295 301 299 295 291 291 314 313 320 316 319
210 214 217 211 223 217 219 211 199 194 187 187 185 180 187 187 189 187 190 190 186 189 187 183 186 187 188 179 186 182 164 182 169 169 157 175 155 171 192 216 236 345 355 314 290 313 307 284 282 305 302 294 285 279 279 276 277 284 298 304 305 304 297
218 222 221 217 215 225 222 234 226 206 195 194 188 186 191 192 193 193 194 194 191 190 189 186 189 185 197 182 197 174 166 195 187 176 155 158 173 229 309 307 249 222 270 294 315 309 291 294 281 263 264 273 278 273 269 275 278 281 285 289 296 296 299
219 225 226 224 218 211 219 239 263 232 213 200 198 192 195 193 196 197 199 197 197 195 194 192 191 187 198 185 188 166 187 190 204 163 186 200 158 208 216 283 313 294 319 311 311 295 306 310 304 292 282 275 280 285 277 285 283 285 287 292 288 294 295
232 235 233 235 227 213 209 236 264 256 231 224 210 203 201 199 199 199 200 201 201 202 199 196 193 194 196 186 182 181 189 194 189 178 195 203 213 170 219 228 251 225 253 283 288 285 291 285 286 298 303 297 292 291 291 286 290 286 289 289 292 287 284
251 252 255 248 244 231 222 216 208 239 255 241 230 217 216 207 203 203 203 203 203 202 201 199 195 198 199 190 189 186 189 186 190 190 199 201 206 195 226 230 236 248 257 268 284 308 297 286 289 292 297 293 284 279 272 263 257 268 278 284 282 287 294
259 300 331 312 320 312 273 243 219 218 230 240 241 240 220 224 212 208 208 207 206 204 202 201 197 196 198 193 193 188 188 188 190 195 194 203 179 258 219 229 262 290 277 278 284 278 301 324 312 308 305 303 294 295 293 290 292 288 288 285 288 284 285
262 253 230 250 246 227 234 249 247 228 221 230 224 238 244 229 226 216 212 212 212 208 206 209 201 196 197 190 191 188 189 189 186 193 188 204 207 198 224 255 250 245 264 279 286 305 305 304 309 304 304 305 309 310 302 297 285 277 277 279 283 287 283
300 278 286 272 260 254 247 243 240 235 242 240 246 254 243 240 228 225 218 216 216 213 211 216 215 202 198 186 190 184 189 185 187 192 191 196 197 196 213 230 238 248 259 271 278 283 303 303 294 294 290 292 292 293 295 293 294 292 287 284 283 280 280
332 327 319 289 261 249 247 260 294 357 309 283 242 242 241 240 232 225 224 221 217 217 216 210 217 214 200 184 184 182 183 183 188 186 187 199 190 191 202 220 225 240 246 357 8 340 325 307 311 301 300 302 300 297 294 292 289 286 283 282 281 288 287
287 300 281 267 264 267 253 205 202 213 251 265 260 244 242 242 240 231 228 229 222 217 216 216 222 219 204 180 182 180 180 183 187 179 184 193 184 194 201 203 207 225 78 57 28 340 323 338 300 285 290 290 290 291 289 289 289 287 285 284 286 284 283
245 250 255 254 253 258 268 270 244 212 205 220 240 245 251 247 239 240 246 238 235 221 213 215 201 184 186 183 179 177 174 179 180 181 185 183 184 199 199 197 207 111 117 175 251 251 251 244 238 275 294 300 301 300 296 294 290 288 290 289 287 288 286
249 250 252 262 267 270 271 268 260 252 247 248 245 247 244 247 249 224 254 256 240 217 121 95 127 147 166 164 174 172 168 175 181 179 184 188 196 193 204 208 205 157 183 203 215 218 225 218 226 231 240 259 276 283 292 288 283 288 289 287 285 283 282
276 277 275 276 277 272 273 273 268 263 249 238 244 248 247 243 248 252 222 111 24 186 198 124 133 128 129 137 156 161 173 169 171 180 195 190 197 207 207 209 224 221 224 227 243 214 214 219 221 220 228 234 237 244 245 256 273 280 281 282 281 278 281
282 282 286 287 293 290 278 272 268 268 264 255 242 244 246 243 248 246 193 204 196 190 148 137 127 127 120 117 128 165 170 175 180 193 193 191 206 206 219 228 238 226 235 136 219 245 262 223 207 222 225 227 233 233 237 239 244 251 266 270 273 274 272
291 291 294 292 290 288 278 272 275 269 265 254 241 242 238 238 240 241 218 221 219 190 122 143 132 127 128 124 129 202 210 167 188 182 187 192 201 219 224 235 242 241 246 219 243 260 269 276 306 259 240 237 242 229 225 234 238 236 238 250 263 271 275
296 301 300 297 293 288 287 282 274 266 258 255 246 234 238 239 234 234 233 224 201 127 136 145 141 138 134 132 127 266 204 150 184 192 208 209 218 230 241 244 250 258 259 259 267 343 281 299 297 296 294 292 286 285 277 247 229 229 233 236 247 259 269
292 292 289 288 287 283 282 279 268 262 261 261 257 250 240 241 243 229 224 215 171 132 143 151 143 144 142 146 158 216 181 158 196 209 212 216 217 231 235 235 241 245 254 268 104 99 65 294 286 290 291 289 286 283 275 267 266 268 268 263 256 255 261
287 290 290 287 281 280 279 276 270 262 257 252 251 243 248 246 237 234 220 207 163 135 143 155 151 151 152 159 177 190 167 182 200 211 217 227 231 237 240 240 248 255 258 278 126 137 135 201 267 285 290 291 289 287 283 282 262 246 243 250 256 265 273
286 285 288 284 284 282 277 274 271 257 253 253 247 247 239 242 240 231 215 189 141 145 146 160 162 157 158 175 201 183 181 197 210 224 229 231 247 254 259 190 235 257 266 271 133 152 153 192 268 284 291 292 292 288 289 289 283 276 252 231 237 243 245
284 283 282 283 282 279 274 272 268 261 255 252 254 250 233 235 226 169 163 132 123 132 136 154 171 162 169 179 215 206 217 227 233 240 262 271 266 269 270 199 194 229 242 260 128 149 163 235 281 283 287 291 290 288 288 292 288 285 285 287 275 257 243
270 274 276 277 277 275 275 272 265 259 260 256 254 254 231 225 156 128 123 119 128 132 139 153 171 167 164 185 252 339 23 50 286 304 292 281 290 284 281 289 228 210 241 47 51 46 30 11 289 288 290 284 288 286 293 294 303 314 311 306 292 287 288
274 275 274 276 279 275 269 267 262 252 247 247 253 240 110 110 120 117 115 124 130 136 145 153 150 151 153 184 94 25 52 314 309 291 289 298 290 293 289 292 69 76 78 52 52 358 316 266 268 279 279 276 277 308 326 300 293 290 285 285 284 282 280
268 273 279 278 276 272 268 263 261 257 246 240 229 151 112 112 117 115 114 102 105 122 129 130 143 157 153 138 126 197 220 279 17 301 297 286 282 279 289 285 348 107 117 151 177 220 232 242 240 261 268 272 287 291 287 285 285 283 278 278 277 277 276
261 260 264 268 269 270 267 263 253 249 251 223 163 147 140 132 126 127 125 115 109 114 121 127 144 154 156 158 166 185 234 286 83 277 281 282 287 287 284 289 158 76 354 351 332 319 303 286 274 272 275 270 267 268 268 276 278 276 272 270 271 271 269
259 255 258 260 261 261 263 263 262 242 203 178 176 176 153 141 139 136 135 133 131 136 138 134 145 151 163 176 174 193 191 227 259 275 306 294 291 293 287 293 344 344 334 331 318 300 293 285 278 276 273 274 273 273 272 279 275 270 268 269 269 267 265